DW4338 Bergen NO current weather conditions

sailwx.info

Wind from 161 at 26 knots gusting 50

Air temperature 11.1° C
Dewpoint 9.4° C

Last reported at 2014-Oct-31 19:41 UTC.
Time now 2014-Oct-31 23:46 UTC

Location: N 60°31' E 004°54'.
View on Google Maps.

See reports from other nearby stations

  
Tides and Currents Weather Stations Pressure Air Temp Water Temp Dewpoint Dewpoint Depression Visibility Wind Speed Wind Dir Waves Ship Positions
date/time (UTC)wind fromknots sea level pressurealtimeterstation pressurevisibilityair tempwater tempwave heightnotes
2014-Oct-31 19:41 161 26 gusting 50 11.1
2014-Oct-31 19:26 140 18 gusting 39 11.1
2014-Oct-31 19:10 115 19 gusting 42 11.1
2014-Oct-31 18:54 123 25 gusting 41 11.1
2014-Oct-31 18:39 126 22 gusting 46 11.1
2014-Oct-31 18:24 150 22 gusting 41 11.1
2014-Oct-31 18:09 133 29 gusting 53 11.1
2014-Oct-31 17:54 126 32 gusting 48 11.1
2014-Oct-31 17:38 099 26 gusting 45 11.1
2014-Oct-31 17:23 128 22 gusting 46 10.6
2014-Oct-31 17:08 106 23 gusting 42 10.6
2014-Oct-31 16:53 112 26 gusting 39 10.6
2014-Oct-31 16:38 126 19 gusting 46 10.6
2014-Oct-31 16:23 135 24 gusting 46 10.0
2014-Oct-31 16:07 119 26 gusting 41 10.0
2014-Oct-31 15:52 106 20 gusting 34 10.0
2014-Oct-31 15:37 123 22 gusting 45 10.0
2014-Oct-31 15:22 108 22 gusting 38 10.0
2014-Oct-31 15:07 129 18 gusting 39 9.4
2014-Oct-31 14:51 119 26 gusting 38 9.4
2014-Oct-31 14:36 105 26 gusting 48 9.4
2014-Oct-31 14:21 126 26 gusting 39 9.4
2014-Oct-31 14:07 112 22 gusting 39 9.4
2014-Oct-31 13:51 133 23 gusting 37 8.9
2014-Oct-31 13:36 106 24 gusting 38 8.9
2014-Oct-31 13:20 115 18 gusting 27 8.9
2014-Oct-31 13:06 128 12 gusting 26 8.9
2014-Oct-31 12:50 105 13 gusting 23 8.3
2014-Oct-31 12:37 106 13 gusting 26 8.3
2014-Oct-31 12:21 107 13 gusting 26 8.3
2014-Oct-31 12:04 111 7 gusting 24 7.8
2014-Oct-31 11:49 105 13 gusting 23 7.8
2014-Oct-31 11:34 109 15 gusting 27 7.2
2014-Oct-31 11:19 107 15 gusting 24 7.2
2014-Oct-31 11:04 107 5 gusting 17 7.2
2014-Oct-31 10:49 110 11 gusting 20 7.2
2014-Oct-31 10:33 111 8 gusting 19 7.2
2014-Oct-31 10:18 114 8 gusting 17 7.2
2014-Oct-31 10:03 115 7 gusting 16 7.2
2014-Oct-31 09:49 116 6 gusting 17 6.7
2014-Oct-31 09:34 116 11 gusting 28 6.7
2014-Oct-31 09:18 118 13 gusting 27 6.7
2014-Oct-31 09:02 110 12 gusting 26 6.7
2014-Oct-31 08:48 105 12 gusting 23 6.1
2014-Oct-31 08:32 109 14 gusting 26 6.1
2014-Oct-31 08:17 106 13 gusting 22 6.1
2014-Oct-31 08:02 109 13 gusting 26 6.1
2014-Oct-31 07:47 107 15 gusting 25 6.1
2014-Oct-31 07:31 106 15 gusting 24 6.1
2014-Oct-31 07:16 105 12 gusting 22 6.1
2014-Oct-31 07:01 089 11 gusting 24 6.1
2014-Oct-31 06:46 105 11 gusting 21 6.7
2014-Oct-31 06:31 116 13 gusting 24 6.7
2014-Oct-31 06:16 103 6 gusting 17 6.7
2014-Oct-31 06:00 103 6 gusting 16 7.2
2014-Oct-31 05:45 105 6 gusting 16 7.2
2014-Oct-31 05:30 106 3 gusting 14 7.2
2014-Oct-31 05:15 107 6 gusting 23 7.8
2014-Oct-31 05:01 115 14 gusting 27 7.8
2014-Oct-31 04:45 098 8 gusting 21 7.8
2014-Oct-31 04:29 098 6 gusting 19 7.8
2014-Oct-31 04:14 097 7 gusting 16 7.2
2014-Oct-31 03:59 101 2 gusting 12 7.8
2014-Oct-31 03:44 105 12 gusting 20 7.8
2014-Oct-31 03:29 103 12 gusting 24 7.2
2014-Oct-31 03:13 093 7 gusting 18 7.2
2014-Oct-31 02:58 091 7 gusting 17 7.2
2014-Oct-31 02:43 093 8 gusting 14 7.2
2014-Oct-31 02:28 100 9 gusting 19 7.2
2014-Oct-31 02:13 088 9 gusting 18 7.2
2014-Oct-31 01:57 092 6 gusting 16 6.7
2014-Oct-31 01:42 093 6 gusting 14 6.7
2014-Oct-31 01:27 099 8 gusting 19 6.7
2014-Oct-31 01:12 103 8 gusting 17 6.7
2014-Oct-31 00:57 090 3 gusting 18 6.7
2014-Oct-31 00:42 090 5 gusting 14 6.7
2014-Oct-31 00:26 092 6 gusting 15 6.7
2014-Oct-31 00:11 095 6 gusting 15 6.7
2014-Oct-30 23:56 105 6 gusting 16 6.7
2014-Oct-30 23:55 105 6 gusting 16 6.7
2014-Oct-30 23:41 105 6 gusting 14 6.7
2014-Oct-30 23:26 105 8 gusting 15 6.7
2014-Oct-30 23:11 107 7 gusting 14 6.7
2014-Oct-30 22:56 107 7 gusting 17 6.1
2014-Oct-30 22:40 107 5 gusting 14 6.1
2014-Oct-30 22:26 108 5 gusting 13 6.1
2014-Oct-30 22:10 108 6.1
2014-Oct-30 21:54 108 7 gusting 15 6.1
2014-Oct-30 21:40 108 7 gusting 18 6.1
2014-Oct-30 21:25 108 4 gusting 13 6.1
2014-Oct-30 21:09 108 6 gusting 16 6.7
2014-Oct-30 20:54 109 7 gusting 18 6.7
2014-Oct-30 20:39 109 6 gusting 14 6.7
2014-Oct-30 20:24 109 6 gusting 13 6.1
2014-Oct-30 20:09 109 5 gusting 16 6.1
2014-Oct-30 19:54 109 5 gusting 16 6.1
2014-Oct-30 19:38 111 6 gusting 19 6.1
2014-Oct-30 19:23 106 13 gusting 21 6.1
2014-Oct-30 19:08 107 5 gusting 20 6.1
2014-Oct-30 18:53 106 7 gusting 16 6.1
2014-Oct-30 18:38 106 7 gusting 16 6.1
2014-Oct-30 18:23 106 7 gusting 14 6.1
2014-Oct-30 18:07 106 6 gusting 16 6.1
2014-Oct-30 17:52 106 4 gusting 16 6.1
2014-Oct-30 17:37 106 8 gusting 22 6.1
2014-Oct-30 17:22 109 9 gusting 22 6.1
2014-Oct-30 17:08 111 12 gusting 25 6.1
2014-Oct-30 16:52 111 7 gusting 15 6.1
2014-Oct-30 16:37 114 8 gusting 17 6.1
2014-Oct-30 16:21 116 6 gusting 15 6.1
2014-Oct-30 16:06 117 7 gusting 16 6.1
2014-Oct-30 15:51 117 6 gusting 16 6.7
2014-Oct-30 15:36 118 8 gusting 16 6.7
2014-Oct-30 15:21 112 12 gusting 20 6.7
2014-Oct-30 15:06 109 14 gusting 29 6.7
2014-Oct-30 14:50 105 10 gusting 25 7.2
2014-Oct-30 14:36 105 13 gusting 24 7.2
2014-Oct-30 14:21 123 11 gusting 20 7.2
2014-Oct-30 14:05 109 10 gusting 18 7.2
2014-Oct-30 13:51 107 12 gusting 17 7.2
2014-Oct-30 13:35 108 6 gusting 17 7.2
2014-Oct-30 13:19 111 9 gusting 20 7.2
2014-Oct-30 13:04 121 11 gusting 23 7.2
2014-Oct-30 12:49 107 7 gusting 19 7.2
2014-Oct-30 12:34 108 11 gusting 19 7.2
2014-Oct-30 12:19 105 11 gusting 17 7.2
2014-Oct-30 12:04 106 13 gusting 21 7.2
2014-Oct-30 11:49 107 14 gusting 24 7.2
2014-Oct-30 11:33 109 16 gusting 23 7.2
2014-Oct-30 11:18 107 7 gusting 20 7.2
2014-Oct-30 11:03 105 13 gusting 21 6.7
2014-Oct-30 10:48 107 9 gusting 19 6.7
2014-Oct-30 10:33 107 7 gusting 19 6.7
2014-Oct-30 10:18 107 8 gusting 19 6.7
2014-Oct-30 10:02 119 6 gusting 27 6.7
2014-Oct-30 09:47 107 5 gusting 17 6.1
2014-Oct-30 09:32 107 8 gusting 19 6.1
2014-Oct-30 09:17 103 9 gusting 16 6.1
2014-Oct-30 09:03 093 9 gusting 19 6.1
2014-Oct-30 08:47 102 6 gusting 19 6.1
2014-Oct-30 08:31 101 2 gusting 13 6.1
2014-Oct-30 08:16 101 8 gusting 17 5.6
2014-Oct-30 08:01 099 10 gusting 19 5.6
2014-Oct-30 07:46 089 0 gusting 13 5.6
2014-Oct-30 07:31 071 10 gusting 19 5.0
2014-Oct-30 07:16 056 5 gusting 11 5.0
2014-Oct-30 07:00 056 4 gusting 12 5.0
2014-Oct-30 06:45 056 3 gusting 10 5.0
2014-Oct-30 06:30 056 3 gusting 12 5.0
2014-Oct-30 06:15 056 1 gusting 7 5.0
2014-Oct-30 06:00 056 5 gusting 13 5.0
2014-Oct-30 05:45 041 6 gusting 14 5.0
2014-Oct-30 05:29 035 4 gusting 12 5.0
2014-Oct-30 05:14 035 3 gusting 8 5.0
2014-Oct-30 04:59 035 5.0
2014-Oct-30 04:44 035 1 gusting 11 5.0
2014-Oct-30 04:29 034 3 gusting 9 5.0
2014-Oct-30 04:14 034 9 gusting 13 5.6
2014-Oct-30 03:58 016 5.6
2014-Oct-30 03:43 015 3 gusting 7 5.6
2014-Oct-30 03:28 005 2 gusting 6 5.6
2014-Oct-30 03:13 005 5.6
2014-Oct-30 02:58 005 5.6
2014-Oct-30 02:42 005 5.6
2014-Oct-30 02:27 005 6.1
2014-Oct-30 02:12 005 6.1
2014-Oct-30 01:57 355 2 gusting 5 6.1
2014-Oct-30 01:42 355 6.1
2014-Oct-30 01:27 355 5.6
2014-Oct-30 01:11 355 6.1
2014-Oct-30 00:56 355 6.1
2014-Oct-30 00:41 355 6.1
2014-Oct-30 00:26 355 6.1
2014-Oct-30 00:11 355 6.1
2014-Oct-29 23:56 355 6.1
2014-Oct-29 23:40 355 2 gusting 10 6.7
2014-Oct-29 23:25 336 6 gusting 12 6.1
2014-Oct-29 23:10 336 3 gusting 12 6.1